Weather History for Columbia, SC

Change the Weather History Date:

Tuesday, September 3, 2013

  Actual Average Record
Temperature  
Mean Temperature 83 °F 78 °F  
Max Temperature 93 °F 88 °F 101 °F (1925)
Min Temperature 73 °F 68 °F 48 °F (1967)
Degree Days  
Heating Degree Days 0 0  
Month to date heating degree days 0 0  
Since 1 July heating degree days 0 0  
Cooling Degree Days 18 13  
Month to date cooling degree days 56 41  
Year to date cooling degree days 1749 1809  
Growing Degree Days 33 (Base 50)    
Moisture  
Dew Point 72 °F    
Average Humidity 70    
Maximum Humidity 93    
Minimum Humidity 46    
Precipitation  
Precipitation 0.00 in 0.13 in 5.17 in (1998)
Month to date precipitation 0.00 0.39  
Year to date precipitation 43.51 32.31  
Sea Level Pressure  
Sea Level Pressure 29.88 in    
Wind  
Wind Speed 5 mph (WSW)    
Max Wind Speed 14 mph    
Max Gust Speed 22 mph    
Visibility 9 miles    
Events      
T = Trace of Precipitation, MM = Missing Value Source: NWS Daily Summary

Daily Weather History Graph

Daily Weather History Graph

Search for Another Location

Airport:

Trip Planner

Search our weather history database for the weather conditions in past years. The results will help you decide how hot, cold, wet, or windy it might be!

Date:

Astronomy

Sep. 03, 2013 Rise Set
Actual Time 6:59 AM EDT 7:47 PM EDT
Civil Twilight 6:34 AM EDT 8:12 PM EDT
Nautical Twilight 6:04 AM EDT 8:42 PM EDT
Astronomical Twilight 5:33 AM EDT 9:13 PM EDT
Moon 5:14 AM EDT (9/3) 6:32 PM EDT (9/3)
Length of Visible Light 13h 38m
Length of Day
12h 47m
Waning Crescent, 3% of the Moon is Illuminated
Sep 3
Waning Crescent
Sep 5
New
Sep 12
First Quarter
Sep 19
Full
Sep 26
Last Quarter

Hourly Weather History & Observations

Time (EDT) Temp. Heat Index Dew Point Humidity Pressure Visibility Wind Dir Wind Speed Gust Speed Precip Events Conditions
12:56 AM 75.9 °F - 72.0 °F 87% 29.87 in 7.0 mi South 3.5 mph - N/A   Clear
1:56 AM 75.0 °F - 72.0 °F 90% 29.86 in 8.0 mi SW 3.5 mph - N/A   Clear
2:56 AM 73.9 °F - 72.0 °F 93% 29.85 in 8.0 mi WSW 3.5 mph - N/A   Partly Cloudy
3:56 AM 73.9 °F - 72.0 °F 93% 29.84 in 7.0 mi Calm Calm - N/A   Clear
4:56 AM 73.9 °F - 72.0 °F 93% 29.84 in 7.0 mi SW 4.6 mph - N/A   Clear
5:56 AM 73.0 °F - 71.1 °F 93% 29.85 in 6.0 mi WSW 5.8 mph - N/A   Clear
6:56 AM 73.0 °F - 71.1 °F 93% 29.86 in 7.0 mi Calm Calm - N/A   Scattered Clouds
7:56 AM 73.9 °F - 72.0 °F 93% 29.89 in 5.0 mi WSW 3.5 mph - N/A   Mostly Cloudy
8:56 AM 78.1 °F - 73.0 °F 84% 29.90 in 8.0 mi West 8.1 mph 21.9 mph N/A   Mostly Cloudy
9:56 AM 82.9 °F 88.0 °F 72.0 °F 69% 29.89 in 10.0 mi West 9.2 mph - N/A   Scattered Clouds
10:56 AM 86.0 °F 92.2 °F 72.0 °F 63% 29.85 in 10.0 mi South 11.5 mph 16.1 mph N/A   Scattered Clouds
11:56 AM 87.1 °F 93.6 °F 72.0 °F 61% 29.90 in 10.0 mi West 8.1 mph - N/A   Mostly Cloudy
12:56 PM 90.0 °F 97.9 °F 73.0 °F 57% 29.89 in 10.0 mi North 5.8 mph - N/A   Scattered Clouds
1:56 PM 91.0 °F 96.6 °F 70.0 °F 50% 29.88 in 10.0 mi Variable 5.8 mph - N/A   Scattered Clouds
2:56 PM 93.0 °F 97.9 °F 69.1 °F 45% 29.85 in 10.0 mi North 4.6 mph - N/A   Scattered Clouds
3:56 PM 90.0 °F 94.5 °F 69.1 °F 50% 29.85 in 10.0 mi Variable 6.9 mph - N/A   Scattered Clouds
4:56 PM 91.9 °F 97.4 °F 70.0 °F 48% 29.84 in 10.0 mi WNW 6.9 mph - N/A   Scattered Clouds
5:56 PM 90.0 °F 96.9 °F 72.0 °F 55% 29.84 in 10.0 mi Variable 5.8 mph - N/A   Scattered Clouds
6:56 PM 90.0 °F 95.4 °F 70.0 °F 52% 29.84 in 10.0 mi NNW 8.1 mph - N/A   Scattered Clouds
7:56 PM 87.1 °F 92.8 °F 71.1 °F 59% 29.88 in 10.0 mi Calm Calm - N/A   Scattered Clouds
8:56 PM 84.0 °F 91.2 °F 73.9 °F 72% 29.90 in 10.0 mi Calm Calm - N/A   Scattered Clouds
9:56 PM 80.6 °F 85.4 °F 73.4 °F 79% 29.93 in 10.0 mi WSW 3.5 mph - N/A   Scattered Clouds
10:56 PM 78.1 °F - 73.9 °F 87% 29.95 in 10.0 mi SSW 4.6 mph - N/A   Scattered Clouds
11:56 PM 77.0 °F - 73.9 °F 90% 29.95 in 9.0 mi Calm Calm - N/A   Scattered Clouds